Home > Weather > Monterey > Past weeks

Flag for USA Past Weather in Monterey, California, USA — Yesterday and Last 2 Weeks

Now
60 °F

Overcast.


Feels Like: 60 °F
Forecast: 59 / 64 °F
Wind: 5 mph from West

Location: Monterey Peninsula Airport

Current Time: Aug 27, 2016 at 1:25:26 AM

Latest Report: Aug 27, 2016 at 12:54 AM


Visibility: 10 mi

Pressure: 30.03 "Hg

Humidity: 86%

Dew Point: 56 °F

Location of MontereyLocation

Past Weather in Monterey — Graph

°F

Monterey Temperature Yesterday

Maximum temperature yesterday: 69 °F (at 1:54 PM)
Minimum temperature yesterday: 57 °F (at 4:54 AM)
Average temperature yesterday: 62 °F

High & Low Weather Summary for the Past Weeks

 TemperatureHumidityPressure
High69 °F (Aug 13, 3:54 PM)100% (Aug 12, 10:54 PM)30.16 "Hg (Aug 12, 10:54 PM)
Low50 °F (Aug 13, 6:54 AM)59% (Aug 23, 3:54 PM)29.85 "Hg (Aug 17, 5:54 PM)
Average59 °F85%30.00 "Hg
* Reported Aug 11 11:54 PM — Aug 26 11:54 PM, Monterey, Weather by CustomWeather, © 2016

Note: Actual official high and low records may vary slightly from our data, if they occured in-between our weather recording intervals... More about our weather records

Advertising

Monterey Weather History for the Previous 24 Hours

Scroll right to see more
 ConditionsComfort  
Time TempWeatherWind HumidityBarometerVisibility
11:54 PM
Fri, Aug 26
61 °FOvercast.6 mph81%30.03 "Hg10 mi
10:54 PM62 °FOvercast.5 mph78%30.03 "Hg10 mi
9:54 PM61 °FOvercast.7 mph81%30.03 "Hg10 mi
8:54 PM61 °FOvercast.5 mph83%30.02 "Hg10 mi
7:54 PM61 °FPassing clouds.7 mph83%30.01 "Hg10 mi
6:54 PM63 °FScattered clouds.8 mph78%30.00 "Hg10 mi
5:54 PM65 °FSunny.14 mph70%30.00 "Hg10 mi
4:54 PM67 °FScattered clouds.9 mph66%30.00 "Hg10 mi
3:54 PM68 °FSunny.15 mph63%30.00 "Hg10 mi
2:54 PM69 °FSunny.16 mph61%30.00 "Hg10 mi
1:54 PM69 °FPassing clouds.16 mph61%30.01 "Hg10 mi
12:54 PM68 °FScattered clouds.12 mph63%30.02 "Hg10 mi
11:54 AM65 °FOvercast.10 mph70%30.02 "Hg10 mi
10:54 AM63 °FOvercast.6 mph73%30.03 "Hg10 mi
9:54 AM61 °FOvercast.No wind81%30.01 "Hg10 mi
8:54 AM58 °FOvercast.No wind90%30.01 "Hg10 mi
7:54 AM58 °FOvercast.No wind87%29.99 "Hg10 mi
6:54 AM57 °FOvercast.5 mph93%29.98 "Hg10 mi
5:54 AM58 °FOvercast.3 mph90%29.97 "Hg9 mi
4:54 AM57 °FLow clouds.No wind93%29.96 "Hg10 mi
3:54 AM58 °FLow clouds.5 mph90%29.96 "Hg8 mi
2:54 AM58 °FLow clouds.No wind90%29.96 "Hg7 mi
1:54 AM58 °FLow clouds.5 mph90%29.96 "Hg10 mi
Weather by CustomWeather, © 2016

See weather overviewHow to use our weather pages